| time (UTC) | temp F | wind direction | speed MPH | gust MPH | rain 1hr in | rain 24hr in | rain mn in | humidity % | barometer mb |
| 20260906003904 | 60 | 228 | 6.0 | 7.0 | 0.02 | 0.06 | 0.06 | 87 | 1013.7 |
| 20260905235904 | 58 | 229 | 4.0 | 6.0 | 0.03 | 0.06 | 0.06 | 89 | 1014.6 |
| 20260905235404 | 57 | 239 | 6.0 | 9.0 | 0.03 | 0.06 | 0.06 | 89 | 1014.7 |
| 20260905234904 | 57 | 231 | 6.0 | 10.0 | 0.03 | 0.06 | 0.06 | 89 | 1014.9 |
| 20260905233904 | 57 | 238 | 8.0 | 10.0 | 0.01 | 0.04 | 0.04 | 86 | 1015.1 |
| 20260905232904 | 58 | 246 | 6.0 | 8.0 | 0.00 | 0.03 | 0.03 | 85 | 1015.2 |
| 20260905232404 | 58 | 247 | 5.0 | 7.0 | 0.00 | 0.03 | 0.03 | 85 | 1015.3 |
| 20260905231904 | 58 | 249 | 5.0 | 7.0 | 0.00 | 0.03 | 0.03 | 85 | 1015.4 |
| 20260905231405 | 59 | 274 | 5.0 | 5.0 | 0.00 | 0.03 | 0.03 | 85 | 1015.4 |
| 20260905230404 | 58 | 287 | 6.0 | 8.0 | 0.00 | 0.03 | 0.03 | 87 | 1015.5 |
| 20260905225405 | 58 | 300 | 5.0 | 10.0 | 0.00 | 0.03 | 0.03 | 87 | 1015.6 |
| 20260905224904 | 58 | 293 | 8.0 | 10.0 | 0.00 | 0.03 | 0.03 | 87 | 1015.7 |
| 20260905222905 | 57 | 312 | 10.0 | 14.0 | 0.00 | 0.03 | 0.03 | 88 | 1016.2 |
| 20260905222404 | 58 | 313 | 10.0 | 17.0 | 0.00 | 0.03 | 0.03 | 88 | 1016.2 |
| 20260905221904 | 58 | 311 | 13.0 | 18.0 | 0.01 | 0.03 | 0.03 | 88 | 1016.1 |
| 20260905214906 | 57 | 325 | 11.0 | 13.0 | 0.03 | 0.03 | 0.03 | 91 | 1016.4 |
| 20260905214404 | 56 | 333 | 11.0 | 13.0 | 0.03 | 0.03 | 0.03 | 91 | 1016.3 |
| 20260905213404 | 55 | 328 | 9.0 | 12.0 | 0.03 | 0.03 | 0.03 | 91 | 1016.5 |
| 20260905212904 | 55 | 317 | 9.0 | 12.0 | 0.03 | 0.03 | 0.03 | 91 | 1016.6 |
| 20260905212404 | 55 | 332 | 9.0 | 12.0 | 0.03 | 0.03 | 0.03 | 90 | 1016.6 |
| 20260905211404 | 56 | 311 | 10.0 | 15.0 | 0.00 | 0.00 | 0.00 | 90 | 1016.7 |
| 20260905210904 | 56 | 315 | 11.0 | 14.0 | 0.00 | 0.00 | 0.00 | 91 | 1016.7 |
| 20260905210404 | 56 | 312 | 10.0 | 14.0 | 0.00 | 0.00 | 0.00 | 91 | 1016.6 |
| 20260905204405 | 55 | 321 | 7.0 | 12.0 | 0.00 | 0.00 | 0.00 | 93 | 1016.7 |
| 20260905203404 | 54 | 322 | 7.0 | 12.0 | 0.00 | 0.00 | 0.00 | 93 | 1016.7 |
| 20260905202905 | 53 | 331 | 6.0 | 9.0 | 0.00 | 0.00 | 0.00 | 93 | 1016.6 |
| 20260905202405 | 53 | 331 | 7.0 | 10.0 | 0.00 | 0.00 | 0.00 | 93 | 1016.7 |
| 20260905195905 | 50 | 338 | 5.0 | 6.0 | 0.00 | 0.00 | 0.00 | 93 | 1016.7 |
| 20260905195405 | 50 | 342 | 5.0 | 6.0 | 0.00 | 0.00 | 0.00 | 93 | 1016.7 |
| 20260905194405 | 49 | 355 | 5.0 | 5.0 | 0.00 | 0.00 | 0.00 | 93 | 1016.6 |
| 20260905192905 | 47 | 355 | 5.0 | 5.0 | 0.00 | 0.00 | 0.00 | 93 | 1016.5 |
| 20260905191906 | 48 | 355 | 4.0 | 5.0 | 0.00 | 0.00 | 0.00 | 93 | 1016.5 |
| 20260905191406 | 48 | 355 | 3.0 | 3.0 | 0.00 | 0.00 | 0.00 | 93 | 1016.5 |
| 20260905190905 | 46 | 355 | 3.0 | 3.0 | 0.00 | 0.00 | 0.00 | 93 | 1016.5 |
| 20260905190405 | 45 | 355 | 3.0 | 3.0 | 0.00 | 0.00 | 0.00 | 93 | 1016.4 |
| 20260905185406 | 45 | 355 | 5.0 | 5.0 | 0.00 | 0.00 | 0.00 | 92 | 1016.3 |
| 20260905183404 | 47 | 355 | 5.0 | 5.0 | 0.00 | 0.00 | 0.00 | 93 | 1016.2 |
| 20260905182405 | 46 | 355 | 5.0 | 5.0 | 0.00 | 0.00 | 0.00 | 93 | 1016.1 |
| 20260905181905 | 46 | 355 | 5.0 | 6.0 | 0.00 | 0.00 | 0.00 | 92 | 1016.1 |
| 20260905181405 | 46 | 355 | 4.0 | 5.0 | 0.00 | 0.00 | 0.00 | 92 | 1015.9 |
| 20260905175405 | 48 | 349 | 6.0 | 6.0 | 0.00 | 0.00 | 0.00 | 93 | 1016.1 |
| 20260905172905 | 46 | 5 | 6.0 | 7.0 | 0.00 | 0.00 | 0.00 | 92 | 1015.9 |
| 20260905171905 | 47 | 0 | 6.0 | 6.0 | 0.00 | 0.00 | 0.00 | 93 | 1015.8 |
| 20260905171405 | 48 | 0 | 5.0 | 6.0 | 0.00 | 0.00 | 0.00 | 93 | 1015.7 |
| 20260905170905 | 47 | 355 | 3.0 | 6.0 | 0.00 | 0.00 | 0.00 | 92 | 1015.7 |
| 20260905170405 | 46 | 355 | 3.0 | 5.0 | 0.00 | 0.00 | 0.00 | 92 | 1015.7 |
| 20260905164405 | 48 | 0 | 6.0 | 6.0 | 0.00 | 0.00 | 0.00 | 93 | 1015.7 |
| 20260905163905 | 48 | 13 | 4.0 | 5.0 | 0.00 | 0.00 | 0.00 | 93 | 1015.7 |
| 20260905162405 | 47 | 13 | 3.0 | 3.0 | 0.00 | 0.00 | 0.00 | 93 | 1015.9 |
| 20260905161405 | 47 | 13 | 4.0 | 5.0 | 0.00 | 0.00 | 0.00 | 93 | 1015.7 |
| 20260905160905 | 47 | 13 | 5.0 | 5.0 | 0.00 | 0.00 | 0.00 | 93 | 1015.6 |
| 20260905153905 | 46 | 14 | 3.0 | 5.0 | 0.00 | 0.00 | 0.00 | 92 | 1015.6 |
| 20260905152905 | 45 | 15 | 5.0 | 6.0 | 0.00 | 0.00 | 0.00 | 92 | 1015.7 |
| 20260905151905 | 45 | 15 | 6.0 | 6.0 | 0.00 | 0.00 | 0.00 | 92 | 1015.7 |
| 20260905151405 | 45 | 355 | 5.0 | 5.0 | 0.00 | 0.00 | 0.00 | 92 | 1015.8 |
| 20260905150904 | 44 | 355 | 3.0 | 6.0 | 0.00 | 0.00 | 0.00 | 91 | 1015.9 |
| 20260905150405 | 44 | 355 | 5.0 | 6.0 | 0.00 | 0.00 | 0.00 | 91 | 1015.9 |
| 20260905144406 | 46 | 337 | 5.0 | 5.0 | 0.00 | 0.00 | 0.00 | 92 | 1016.1 |
| 20260905143405 | 48 | 343 | 6.0 | 7.0 | 0.00 | 0.00 | 0.00 | 92 | 1016.1 |
| 20260905142905 | 47 | 355 | 3.0 | 5.0 | 0.00 | 0.00 | 0.00 | 92 | 1016.4 |
| 20260905142405 | 47 | 355 | 3.0 | 5.0 | 0.00 | 0.00 | 0.00 | 92 | 1016.4 |
| 20260905135905 | 45 | 355 | 2.0 | 3.0 | 0.00 | 0.00 | 0.00 | 91 | 1016.7 |
| 20260905135405 | 45 | 355 | 4.0 | 5.0 | 0.00 | 0.00 | 0.00 | 91 | 1016.8 |
| 20260905132905 | 46 | 340 | 6.0 | 6.0 | 0.00 | 0.00 | 0.00 | 92 | 1016.9 |
| 20260905132405 | 45 | 340 | 5.0 | 7.0 | 0.00 | 0.00 | 0.00 | 91 | 1016.9 |
| 20260905131405 | 45 | 355 | 3.0 | 5.0 | 0.00 | 0.00 | 0.00 | 92 | 1016.9 |
| 20260905130905 | 45 | 355 | 3.0 | 3.0 | 0.00 | 0.00 | 0.00 | 91 | 1017.1 |
| 20260905130404 | 44 | 355 | 4.0 | 5.0 | 0.00 | 0.00 | 0.00 | 91 | 1017.1 |
| 20260905125905 | 45 | 355 | 4.0 | 7.0 | 0.00 | 0.00 | 0.00 | 91 | 1017.0 |
| 20260905123905 | 46 | 43 | 6.0 | 9.0 | 0.00 | 0.00 | 0.00 | 91 | 1017.2 |
| 20260905123405 | 46 | 44 | 6.0 | 8.0 | 0.00 | 0.00 | 0.00 | 90 | 1017.2 |
| 20260905121904 | 46 | 32 | 5.0 | 6.0 | 0.00 | 0.00 | 0.00 | 90 | 1017.1 |
| 20260905121405 | 46 | 19 | 5.0 | 5.0 | 0.00 | 0.00 | 0.00 | 91 | 1017.3 |
| 20260905120907 | 46 | 13 | 3.0 | 6.0 | 0.00 | 0.00 | 0.00 | 91 | 1017.3 |
| 20260905115404 | 46 | 19 | 3.0 | 5.0 | 0.00 | 0.00 | 0.00 | 90 | 1017.2 |
| 20260905114904 | 47 | 30 | 3.0 | 5.0 | 0.00 | 0.00 | 0.00 | 90 | 1017.3 |
| 20260905114404 | 47 | 33 | 5.0 | 6.0 | 0.00 | 0.00 | 0.00 | 91 | 1017.4 |
| 20260905113904 | 47 | 36 | 5.0 | 6.0 | 0.00 | 0.00 | 0.00 | 90 | 1017.6 |
| 20260905113404 | 47 | 34 | 5.0 | 7.0 | 0.00 | 0.00 | 0.00 | 90 | 1017.5 |
| 20260905112905 | 47 | 31 | 6.0 | 7.0 | 0.00 | 0.00 | 0.00 | 90 | 1017.5 |
| 20260905112405 | 46 | 32 | 4.0 | 5.0 | 0.00 | 0.00 | 0.00 | 90 | 1017.6 |
| 20260905111904 | 46 | 32 | 5.0 | 6.0 | 0.00 | 0.00 | 0.00 | 90 | 1017.6 |
| 20260905111405 | 46 | 50 | 5.0 | 7.0 | 0.00 | 0.00 | 0.00 | 89 | 1017.7 |
| 20260905105905 | 47 | 38 | 6.0 | 7.0 | 0.00 | 0.00 | 0.00 | 89 | 1017.7 |
| 20260905104905 | 47 | 49 | 6.0 | 6.0 | 0.00 | 0.00 | 0.00 | 89 | 1017.8 |
| 20260905103404 | 47 | 56 | 3.0 | 5.0 | 0.00 | 0.00 | 0.00 | 88 | 1017.9 |
| 20260905102905 | 47 | 56 | 5.0 | 6.0 | 0.00 | 0.00 | 0.00 | 88 | 1018.0 |
| 20260905094904 | 50 | 284 | 2.0 | 3.0 | 0.00 | 0.00 | 0.00 | 86 | 1018.0 |
| 20260905093404 | 51 | 333 | 1.0 | 5.0 | 0.00 | 0.00 | 0.00 | 86 | 1017.5 |
| 20260905091405 | 50 | 327 | 9.0 | 12.0 | 0.00 | 0.00 | 0.00 | 86 | 1017.3 |
| 20260905090904 | 50 | 334 | 9.0 | 12.0 | 0.00 | 0.00 | 0.00 | 87 | 1017.2 |
| 20260905090404 | 50 | 334 | 10.0 | 12.0 | 0.00 | 0.00 | 0.00 | 87 | 1017.2 |
| 20260905085905 | 50 | 332 | 10.0 | 12.0 | 0.00 | 0.00 | 0.00 | 87 | 1017.3 |
| 20260905085404 | 50 | 332 | 9.0 | 12.0 | 0.00 | 0.00 | 0.00 | 86 | 1017.6 |
| 20260905083904 | 51 | 333 | 6.0 | 7.0 | 0.00 | 0.00 | 0.00 | 85 | 1017.9 |
| 20260905082905 | 51 | 276 | 4.0 | 5.0 | 0.00 | 0.00 | 0.00 | 86 | 1017.8 |
| 20260905082404 | 51 | 263 | 3.0 | 6.0 | 0.00 | 0.00 | 0.00 | 85 | 1017.8 |
| 20260905081905 | 50 | 286 | 3.0 | 3.0 | 0.00 | 0.00 | 0.00 | 85 | 1017.8 |
| 20260905080905 | 50 | 286 | 3.0 | 6.0 | 0.00 | 0.00 | 0.00 | 84 | 1017.7 |
| 20260905080405 | 50 | 290 | 2.0 | 3.0 | 0.00 | 0.00 | 0.00 | 83 | 1017.5 |
| 20260905075905 | 50 | 290 | 2.0 | 3.0 | 0.00 | 0.00 | 0.00 | 83 | 1017.4 |
| 20260905075404 | 51 | 290 | 0.0 | 3.0 | 0.00 | 0.00 | 0.00 | 84 | 1017.3 |
| 20260905073904 | 51 | 286 | 2.0 | 3.0 | 0.00 | 0.00 | 0.00 | 83 | 1017.2 |
| 20260905072904 | 50 | 286 | 3.0 | 3.0 | 0.00 | 0.00 | 0.00 | 83 | 1017.1 |
| 20260905071904 | 50 | 286 | 5.0 | 6.0 | 0.00 | 0.00 | 0.00 | 83 | 1017.1 |
| 20260905071405 | 50 | 285 | 6.0 | 7.0 | 0.00 | 0.00 | 0.00 | 84 | 1017.0 |
| 20260905070405 | 50 | 278 | 7.0 | 8.0 | 0.00 | 0.00 | 0.00 | 81 | 1016.9 |
| 20260905065905 | 51 | 279 | 6.0 | 7.0 | 0.00 | 0.00 | 0.00 | 81 | 1016.8 |
| 20260905063404 | 53 | 281 | 6.0 | 7.0 | 0.00 | 0.00 | 0.00 | 78 | 1016.9 |
| 20260905054404 | 57 | 266 | 12.0 | 15.0 | 0.00 | 0.00 | 0.00 | 71 | 1016.8 |
| 20260905052404 | 58 | 276 | 12.0 | 14.0 | 0.00 | 0.00 | 0.00 | 71 | 1016.7 |
| 20260905050904 | 59 | 264 | 12.0 | 15.0 | 0.00 | 0.00 | 0.00 | 69 | 1016.9 |
| 20260905045904 | 59 | 254 | 13.0 | 17.0 | 0.00 | 0.00 | 0.00 | 69 | 1016.9 |
| 20260905045405 | 59 | 264 | 14.0 | 17.0 | 0.00 | 0.00 | 0.00 | 69 | 1016.9 |
| 20260905044404 | 60 | 261 | 17.0 | 21.0 | 0.00 | 0.00 | 0.00 | 70 | 1017.0 |
| 20260905043904 | 60 | 259 | 14.0 | 18.0 | 0.00 | 0.00 | 0.00 | 71 | 1017.1 |
| 20260905043404 | 60 | 244 | 13.0 | 15.0 | 0.00 | 0.00 | 0.00 | 69 | 1017.1 |
| 20260905041404 | 61 | 247 | 14.0 | 21.0 | 0.00 | 0.00 | 0.00 | 68 | 1017.1 |
| 20260905040405 | 61 | 262 | 17.0 | 23.0 | 0.00 | 0.00 | 0.00 | 67 | 1017.1 |
| 20260905035905 | 61 | 250 | 14.0 | 20.0 | 0.00 | 0.01 | 0.00 | 67 | 1017.2 |
| 20260905035404 | 61 | 254 | 14.0 | 21.0 | 0.00 | 0.01 | 0.00 | 69 | 1017.1 |
| 20260905034904 | 60 | 262 | 12.0 | 20.0 | 0.00 | 0.01 | 0.00 | 71 | 1017.1 |
| 20260905034404 | 61 | 253 | 13.0 | 18.0 | 0.00 | 0.01 | 0.00 | 69 | 1017.1 |
| 20260905032404 | 62 | 245 | 16.0 | 21.0 | 0.00 | 0.02 | 0.00 | 69 | 1017.2 |
| 20260905024904 | 63 | 251 | 16.0 | 20.0 | 0.00 | 0.03 | 0.00 | 70 | 1017.2 |
| 20260905024405 | 62 | 255 | 16.0 | 22.0 | 0.00 | 0.03 | 0.00 | 69 | 1017.3 |
| 20260905023904 | 62 | 251 | 16.0 | 21.0 | 0.00 | 0.03 | 0.00 | 67 | 1017.4 |
| 20260905023404 | 62 | 264 | 17.0 | 20.0 | 0.00 | 0.03 | 0.00 | 69 | 1017.3 |
| 20260905022904 | 62 | 268 | 15.0 | 21.0 | 0.00 | 0.03 | 0.00 | 68 | 1017.4 |
| 20260905022405 | 62 | 262 | 18.0 | 23.0 | 0.00 | 0.03 | 0.00 | 68 | 1017.5 |
| 20260905021905 | 62 | 262 | 18.0 | 21.0 | 0.00 | 0.03 | 0.00 | 68 | 1017.6 |
| 20260905020904 | 62 | 255 | 16.0 | 20.0 | 0.00 | 0.03 | 0.00 | 71 | 1017.6 |
| 20260905020404 | 62 | 269 | 17.0 | 22.0 | 0.00 | 0.03 | 0.00 | 70 | 1017.6 |
| 20260905015905 | 62 | 249 | 14.0 | 17.0 | 0.00 | 0.03 | 0.00 | 70 | 1017.6 |
| 20260905014904 | 61 | 275 | 17.0 | 20.0 | 0.00 | 0.03 | 0.00 | 70 | 1017.7 |
| 20260905012405 | 62 | 272 | 17.0 | 21.0 | 0.00 | 0.03 | 0.00 | 67 | 1017.8 |
| 20260905005904 | 61 | 268 | 17.0 | 22.0 | 0.00 | 0.04 | 0.00 | 68 | 1018.0 |